TimeCDT,TemperatureF,Dew PointF,Humidity,Sea Level PressureIn,VisibilityMPH,Wind Direction,Wind SpeedMPH,Gust SpeedMPH,PrecipitationIn,Events,Conditions,WindDirDegrees,DateUTC
12:12 AM,51.8,46.4,82,30.18,10.0,SE,12.7,-,N/A,,Overcast,130,2013-05-26 05:12:00
12:32 AM,51.8,46.4,82,30.18,10.0,SE,15.0,19.6,N/A,,Mostly Cloudy,130,2013-05-26 05:32:00
12:52 AM,51.8,46.4,82,30.18,10.0,SE,13.8,19.6,N/A,,Scattered Clouds,130,2013-05-26 05:52:00
1:12 AM,51.8,46.4,82,30.18,10.0,ESE,12.7,20.7,N/A,,Scattered Clouds,120,2013-05-26 06:12:00
1:32 AM,51.8,44.6,76,30.17,10.0,SE,13.8,19.6,N/A,,Clear,130,2013-05-26 06:32:00
1:52 AM,50.0,44.6,82,30.15,10.0,ESE,18.4,25.3,N/A,,Clear,120,2013-05-26 06:52:00
2:12 AM,50.0,44.6,82,30.16,10.0,SE,16.1,24.2,N/A,,Clear,130,2013-05-26 07:12:00
2:32 AM,50.0,44.6,82,30.15,10.0,SE,13.8,20.7,N/A,,Clear,130,2013-05-26 07:32:00
2:52 AM,50.0,44.6,82,30.16,10.0,SE,15.0,20.7,N/A,,Clear,140,2013-05-26 07:52:00
3:12 AM,50.0,44.6,82,30.16,10.0,SE,13.8,19.6,N/A,Thunderstorm,Clear,130,2013-05-26 08:12:00
3:32 AM,50.0,44.6,82,30.13,10.0,SE,17.3,21.9,N/A,Thunderstorm,Clear,130,2013-05-26 08:32:00
3:52 AM,50.0,42.8,76,30.13,7.0,SE,15.0,23.0,N/A,Thunderstorm,Clear,130,2013-05-26 08:52:00
4:12 AM,50.0,42.8,76,30.14,10.0,SE,16.1,21.9,N/A,Thunderstorm,Scattered Clouds,130,2013-05-26 09:12:00
4:32 AM,50.0,42.8,76,30.14,7.0,SE,12.7,19.6,N/A,,Mostly Cloudy,130,2013-05-26 09:32:00
4:52 AM,50.0,42.8,76,30.14,7.0,SE,12.7,19.6,N/A,Thunderstorm,Thunderstorm,130,2013-05-26 09:52:00
5:12 AM,50.0,42.8,76,30.16,7.0,SE,12.7,18.4,N/A,Thunderstorm,Overcast,140,2013-05-26 10:12:00
5:32 AM,50.0,44.6,82,30.15,7.0,ESE,13.8,17.3,N/A,Rain-Thunderstorm,Light Thunderstorms and Rain,110,2013-05-26 10:32:00
5:52 AM,48.2,44.6,87,30.15,4.0,ESE,12.7,-,0.06,Rain-Thunderstorm,Heavy Thunderstorms and Rain,110,2013-05-26 10:52:00
6:12 AM,48.2,44.6,87,30.16,7.0,ESE,12.7,21.9,0.12,Rain,Heavy Rain,120,2013-05-26 11:12:00
6:32 AM,48.2,44.6,87,30.17,7.0,ESE,15.0,20.7,0.14,Rain,Rain,110,2013-05-26 11:32:00
6:52 AM,48.2,44.6,87,30.19,7.0,ESE,13.8,-,N/A,Rain-Thunderstorm,Light Thunderstorms and Rain,120,2013-05-26 11:52:00
7:12 AM,48.2,46.4,93,30.19,7.0,ESE,16.1,20.7,0.02,Rain,Rain,120,2013-05-26 12:12:00
7:32 AM,48.2,44.6,87,30.16,7.0,ESE,17.3,23.0,0.05,Rain,Rain,120,2013-05-26 12:32:00
7:52 AM,48.2,44.6,87,30.15,4.0,ESE,18.4,24.2,0.01,Rain,Rain,120,2013-05-26 12:52:00
8:12 AM,48.2,44.6,87,30.14,3.0,SE,17.3,24.2,0.05,Rain,Rain,130,2013-05-26 13:12:00
8:32 AM,48.2,46.4,93,30.13,3.0,SE,18.4,21.9,0.12,Rain,Heavy Rain,130,2013-05-26 13:32:00
8:52 AM,48.2,46.4,93,30.12,4.0,SE,20.7,28.8,0.03,Rain,Heavy Rain,130,2013-05-26 13:52:00
9:12 AM,48.2,46.4,93,30.13,5.0,SE,18.4,26.5,0.08,Rain-Thunderstorm,Rain,130,2013-05-26 14:12:00
9:32 AM,48.2,46.4,93,30.12,5.0,SE,16.1,25.3,0.09,Rain,Light Rain,130,2013-05-26 14:32:00
9:52 AM,48.2,46.4,93,30.13,5.0,ESE,16.1,26.5,N/A,Rain,Rain,120,2013-05-26 14:52:00
10:12 AM,48.2,46.4,93,30.13,4.0,ESE,12.7,20.7,N/A,,Overcast,110,2013-05-26 15:12:00
10:32 AM,48.2,46.4,93,30.12,4.0,East,16.1,19.6,N/A,,Overcast,100,2013-05-26 15:32:00
10:52 AM,50.0,46.4,87,30.12,5.0,ESE,13.8,24.2,N/A,,Overcast,120,2013-05-26 15:52:00
11:12 AM,50.0,46.4,87,30.12,5.0,ESE,13.8,21.9,N/A,,Overcast,120,2013-05-26 16:12:00
11:32 AM,50.0,48.2,94,30.12,5.0,ESE,10.4,19.6,N/A,,Overcast,110,2013-05-26 16:32:00
11:52 AM,51.8,48.2,88,30.13,7.0,ESE,12.7,18.4,N/A,,Overcast,110,2013-05-26 16:52:00
12:12 PM,51.8,48.2,88,30.13,7.0,ESE,13.8,21.9,N/A,,Overcast,120,2013-05-26 17:12:00
12:32 PM,51.8,48.2,88,30.14,7.0,ESE,10.4,21.9,N/A,,Overcast,120,2013-05-26 17:32:00
12:52 PM,51.8,48.2,88,30.14,7.0,SE,9.2,18.4,N/A,,Overcast,130,2013-05-26 17:52:00
1:12 PM,53.6,48.2,82,30.14,7.0,ESE,6.9,-,N/A,,Overcast,120,2013-05-26 18:12:00
1:32 PM,53.6,50.0,88,30.14,7.0,ESE,11.5,17.3,N/A,,Overcast,120,2013-05-26 18:32:00
1:52 PM,53.6,50.0,88,30.13,7.0,ESE,11.5,-,N/A,,Overcast,110,2013-05-26 18:52:00
2:13 PM,53.6,50.0,88,30.14,7.0,ESE,10.4,16.1,N/A,,Overcast,110,2013-05-26 19:13:00
2:32 PM,55.4,50.0,82,30.14,7.0,ESE,10.4,18.4,N/A,,Overcast,110,2013-05-26 19:32:00
2:52 PM,53.6,48.2,82,30.12,7.0,East,12.7,17.3,N/A,,Overcast,90,2013-05-26 19:52:00
3:13 PM,53.6,48.2,82,30.11,7.0,East,13.8,-,N/A,,Overcast,90,2013-05-26 20:13:00
3:32 PM,53.6,48.2,82,30.09,7.0,ESE,18.4,24.2,0.01,,Overcast,110,2013-05-26 20:32:00
3:52 PM,53.6,48.2,82,30.04,10.0,ESE,19.6,27.6,N/A,,Overcast,110,2013-05-26 20:52:00
4:13 PM,55.4,48.2,77,30.03,7.0,ESE,18.4,25.3,N/A,,Overcast,110,2013-05-26 21:13:00
4:32 PM,55.4,48.2,77,30.03,7.0,East,16.1,29.9,N/A,,Overcast,100,2013-05-26 21:32:00
4:52 PM,55.4,50.0,82,30.04,7.0,ESE,18.4,28.8,N/A,Thunderstorm,Overcast,110,2013-05-26 21:52:00
5:13 PM,55.4,50.0,82,30.05,7.0,ESE,19.6,26.5,N/A,,Overcast,110,2013-05-26 22:13:00
5:32 PM,55.4,50.0,82,30.06,7.0,ESE,13.8,28.8,N/A,,Overcast,120,2013-05-26 22:32:00
5:52 PM,55.4,48.2,77,30.07,7.0,ESE,20.7,24.2,N/A,,Overcast,120,2013-05-26 22:52:00
6:12 PM,55.4,48.2,77,30.07,7.0,ESE,17.3,24.2,N/A,,Overcast,120,2013-05-26 23:12:00
6:32 PM,55.4,50.0,82,30.07,7.0,ESE,15.0,-,N/A,,Overcast,120,2013-05-26 23:32:00
6:52 PM,55.4,50.0,82,30.07,7.0,ESE,11.5,18.4,N/A,,Overcast,110,2013-05-26 23:52:00
7:12 PM,55.4,50.0,82,30.08,7.0,ESE,11.5,21.9,N/A,,Overcast,120,2013-05-27 00:12:00
7:32 PM,55.4,50.0,82,30.07,7.0,ESE,12.7,18.4,N/A,,Overcast,110,2013-05-27 00:32:00
7:52 PM,55.4,50.0,82,30.08,7.0,ESE,8.1,-,N/A,,Overcast,110,2013-05-27 00:52:00
8:12 PM,55.4,50.0,82,30.08,7.0,ESE,10.4,-,N/A,,Overcast,110,2013-05-27 01:12:00
8:33 PM,55.4,50.0,82,30.07,7.0,ESE,11.5,-,N/A,,Overcast,110,2013-05-27 01:33:00
8:52 PM,55.4,50.0,82,30.07,10.0,ESE,12.7,-,N/A,,Overcast,110,2013-05-27 01:52:00
9:12 PM,55.4,50.0,82,30.06,10.0,East,11.5,-,N/A,,Overcast,100,2013-05-27 02:12:00
9:32 PM,55.4,50.0,82,30.07,7.0,ESE,10.4,-,N/A,,Overcast,110,2013-05-27 02:32:00
9:52 PM,55.4,50.0,82,30.07,7.0,East,13.8,-,N/A,,Overcast,100,2013-05-27 02:52:00
10:12 PM,55.4,50.0,82,30.06,7.0,ESE,15.0,19.6,N/A,,Overcast,110,2013-05-27 03:12:00
10:32 PM,55.4,50.0,82,30.05,7.0,ESE,15.0,20.7,N/A,,Overcast,110,2013-05-27 03:32:00
10:52 PM,55.4,50.0,82,30.05,5.0,ESE,11.5,18.4,N/A,,Haze,110,2013-05-27 03:52:00
11:12 PM,55.4,50.0,82,30.06,5.0,ESE,10.4,17.3,N/A,,Haze,120,2013-05-27 04:12:00
11:32 PM,53.6,51.8,94,30.04,4.0,ESE,15.0,-,N/A,,Overcast,120,2013-05-27 04:32:00
11:52 PM,53.6,51.8,94,30.02,2.5,ESE,15.0,20.7,N/A,,Overcast,110,2013-05-27 04:52:00